METEOR PRIRODA

导读

METEOR PRIRODA是独联体(CIS)继承自前苏联航天体系的“流星”极轨气象卫星系列成员,于1981年7月10日08时发射。作为第二代Meteor-2系列的收官星,它延续了系列特点,运行在近极轨道,携带可见光红外相机、辐射计等载荷,承担全球气象观测任务,为该系列后续卫星迭代积累了关键技术经验。

Basic Information
目录编号:
12585
目录名称:
METEOR PRIRODA
国际标识:
1981-065A
轨道中心:
EARTH
卫星名称:
METEOR PRIRODA
卫星全名:
--
卫星状态:
已陨落 最后检测时间 2025-11-20
发射日期:
1981-07-10 UTC
国别 :
俄罗斯(独联体) (CIS)
星等 :
--
Orbit Information
数据来源 国际轨道数据
星历时间: 2025-11-20T11:55:38+0800
轨道信息已过期204天
半长轴: 6526.925km
偏心率: 0.0008355
轨道倾角: 97.452°
近地点辐角 261.476°
升交点赤经 29.972°
平近点角 98.559°
近地点: 143.336km
远地点: 154.244km
周期: 87.463分钟
每日圈数: 16.464171
Detailed Information
使用方式:
暂无